CW0774 Weather Reports


time (UTC)temp
F
wind
direction
speed
knots
gust
knots
rain 1hr
in
rain 24hr
in
rain mn
in
humidity
%
barometer
mb
20260506044410 53 165 0.9 7.8 0.00 0.00 0.00 90 1013.6
20260506043911 53 138 2.6 8.7 0.00 0.00 0.00 90 1013.7
20260506042911 53 169 4.3 12.2 0.00 0.00 0.00 89 1013.7
20260506042410 53 168 2.6 10.4 0.00 0.00 0.00 89 1013.7
20260506041911 53 197 2.6 10.4 0.00 0.00 0.00 89 1013.6
20260506041411 53 168 4.3 10.4 0.00 0.00 0.00 89 1013.3
20260506040911 53 155 0.9 8.7 0.00 0.00 0.00 89 1013.6
20260506040411 53 229 3.5 12.2 0.00 0.00 0.00 88 1013.6
20260506035911 53 155 4.3 12.2 0.00 0.00 0.00 88 1013.5
20260506035411 54 183 4.3 7.8 0.00 0.00 0.00 88 1013.5
20260506034911 54 174 1.7 7.8 0.00 0.00 0.00 87 1013.4
20260506034411 54 122 2.6 8.7 0.00 0.00 0.00 87 1013.4
20260506033411 54 173 2.6 8.7 0.00 0.00 0.00 86 1013.2
20260506032410 54 171 2.6 7.8 0.00 0.00 0.00 85 1013.3
20260506031911 54 212 0.9 7.8 0.00 0.00 0.00 85 1013.3
20260506031410 55 232 0.9 7.8 0.00 0.00 0.00 85 1013.4
20260506030912 55 163 1.7 7.8 0.00 0.00 0.00 84 1013.4
20260506030411 55 243 1.7 8.7 0.00 0.00 0.00 84 1013.3
20260506025910 55 175 2.6 8.7 0.00 0.00 0.00 84 1013.3
20260506024911 55 175 1.7 7.8 0.00 0.00 0.00 83 1013.5
20260506024412 55 225 2.6 8.7 0.00 0.00 0.00 83 1013.5
20260506023911 56 157 4.3 8.7 0.00 0.00 0.00 82 1013.4
20260506022910 56 162 2.6 8.7 0.00 0.00 0.00 82 1013.3
20260506022410 56 215 2.6 10.4 0.00 0.00 0.00 81 1013.4
20260506021411 56 237 1.7 8.7 0.00 0.00 0.00 81 1013.6
20260506020910 56 175 1.7 8.7 0.00 0.00 0.00 80 1013.6
20260506020411 56 183 1.7 7.0 0.00 0.00 0.00 80 1013.6
20260506015912 56 206 3.5 7.0 0.00 0.00 0.00 80 1013.6
20260506015411 57 225 1.7 8.7 0.00 0.00 0.00 79 1013.5
20260506014911 57 177 4.3 8.7 0.00 0.00 0.00 79 1013.5
20260506014410 57 223 0.9 7.8 0.00 0.00 0.00 78 1013.4
20260506013911 57 183 2.6 7.0 0.00 0.00 0.00 78 1013.5
20260506012910 58 230 2.6 7.0 0.00 0.00 0.00 78 1013.3
20260506012410 58 191 4.3 7.0 0.00 0.00 0.00 78 1013.4
20260506011910 58 100 1.7 7.0 0.00 0.00 0.00 78 1013.5
20260506010911 58 184 3.5 11.3 0.00 0.00 0.00 77 1013.3
20260506010411 58 168 0.9 11.3 0.00 0.00 0.00 77 1013.5
20260506005410 58 91 1.7 7.8 0.00 0.00 0.00 77 1013.0
20260506004910 58 176 1.7 7.0 0.00 0.00 0.00 76 1013.0
20260506004410 58 245 3.5 6.1 0.00 0.00 0.00 76 1012.9
20260506003910 58 256 2.6 6.1 0.00 0.00 0.00 76 1012.9
20260506003411 59 82 2.6 10.4 0.00 0.00 0.00 76 1012.7
20260506002911 59 158 3.5 12.2 0.00 0.00 0.00 76 1012.5
20260506002411 59 198 5.2 12.2 0.00 0.00 0.00 75 1012.1
20260506001911 60 196 4.3 12.2 0.00 0.00 0.00 75 1011.9
20260506001411 60 240 4.3 7.8 0.00 0.00 0.00 75 1011.9
20260506000411 60 241 0.9 8.7 0.00 0.00 0.00 75 1011.9
20260505235910 60 226 5.2 8.7 0.00 0.00 0.00 76 1011.8
20260505235410 60 204 2.6 7.0 0.00 0.00 0.00 76 1012.0
20260505234910 59 224 2.6 7.0 0.00 0.00 0.00 77 1012.2
20260505234410 59 125 2.6 8.7 0.00 0.00 0.00 78 1012.2
20260505233910 58 132 3.5 10.4 0.00 0.00 0.00 79 1012.1
20260505233411 58 108 3.5 10.4 0.00 0.00 0.00 80 1012.0
20260505232911 57 184 5.2 11.3 0.00 0.00 0.00 80 1012.1
20260505230911 56 104 3.5 8.7 0.00 0.00 0.00 80 1010.9
20260505230411 57 218 1.7 10.4 0.00 0.00 0.00 80 1010.7
20260505225410 57 213 4.3 10.4 0.00 0.00 0.00 79 1010.6
20260505223910 57 129 2.6 12.2 0.00 0.00 0.00 78 1010.2
20260505223411 57 138 5.2 13.0 0.00 0.00 0.00 78 1010.0
20260505222910 57 197 5.2 14.8 0.00 0.00 0.00 77 1009.9
20260505222410 57 166 4.3 18.2 0.00 0.00 0.00 77 1009.7
20260505221910 57 192 6.1 18.2 0.00 0.00 0.00 77 1009.5
20260505220911 58 202 6.1 17.4 0.00 0.00 0.00 76 1009.6
20260505220412 58 203 5.2 20.0 0.00 0.00 0.00 75 1009.6
20260505215911 58 195 7.8 20.0 0.00 0.00 0.00 75 1009.7
20260505215410 58 193 4.3 13.9 0.00 0.00 0.00 74 1009.6
20260505214410 59 119 6.1 13.0 0.00 0.00 0.00 73 1009.3
20260505213910 59 254 5.2 13.0 0.00 0.00 0.00 73 1009.3
20260505213410 59 44 5.2 15.6 0.00 0.00 0.00 72 1009.3
20260505212910 60 126 7.8 20.9 0.00 0.00 0.00 72 1009.2
20260505212411 60 162 6.1 20.9 0.00 0.00 0.00 71 1009.1
20260505211910 61 145 6.1 20.0 0.00 0.00 0.00 70 1009.2
20260505211411 61 178 6.1 20.0 0.00 0.00 0.00 69 1009.2
20260505210910 61 134 6.1 14.8 0.00 0.00 0.00 69 1009.3
20260505205411 62 194 6.1 17.4 0.00 0.00 0.00 69 1009.4
20260505204910 62 178 5.2 17.4 0.00 0.00 0.00 69 1009.3
20260505203911 62 194 6.1 13.9 0.00 0.00 0.00 68 1009.3
20260505203411 62 166 4.3 13.9 0.00 0.00 0.00 69 1009.3
20260505202911 62 231 4.3 13.9 0.00 0.00 0.00 68 1009.3
20260505201912 62 110 5.2 18.2 0.00 0.00 0.00 68 1009.6
20260505201410 63 149 6.1 14.8 0.00 0.00 0.00 67 1009.7
20260505200411 63 255 6.1 20.0 0.00 0.00 0.00 67 1009.7
20260505195911 63 176 5.2 13.0 0.00 0.00 0.00 67 1009.7
20260505195410 63 358 5.2 15.6 0.00 0.00 0.00 67 1009.7
20260505194910 63 148 5.2 15.6 0.00 0.00 0.00 67 1009.8
20260505194410 63 74 4.3 13.9 0.00 0.00 0.00 67 1009.9
20260505193911 64 180 7.0 13.9 0.00 0.00 0.00 67 1010.0
20260505193411 64 192 5.2 13.9 0.00 0.00 0.00 66 1010.0
20260505192910 64 179 5.2 13.9 0.00 0.00 0.00 66 1010.2
20260505191910 65 153 5.2 12.2 0.00 0.00 0.00 65 1010.5
20260505191410 65 215 5.2 13.9 0.00 0.00 0.00 65 1010.5
20260505190911 65 209 2.6 13.9 0.00 0.00 0.00 65 1010.6
20260505190411 65 181 6.1 13.9 0.00 0.00 0.00 64 1010.6
20260505185412 66 154 5.2 13.9 0.00 0.00 0.00 64 1010.5
20260505184911 66 224 3.5 12.2 0.00 0.00 0.00 65 1010.6
20260505184411 65 115 4.3 12.2 0.00 0.00 0.00 65 1010.6
20260505183411 65 224 6.1 13.9 0.00 0.00 0.00 65 1010.9
20260505182910 65 141 5.2 13.9 0.00 0.00 0.00 65 1011.0
20260505182412 65 174 5.2 13.9 0.00 0.00 0.00 64 1011.1
20260505181911 66 137 5.2 13.9 0.00 0.00 0.00 64 1010.9
20260505181411 66 133 4.3 18.2 0.00 0.00 0.00 64 1011.0
20260505180911 66 212 6.1 18.2 0.00 0.00 0.00 64 1010.9
20260505180410 66 165 5.2 12.2 0.00 0.00 0.00 64 1010.9
20260505175911 66 125 4.3 13.0 0.00 0.00 0.00 64 1010.9
20260505175410 66 225 4.3 13.0 0.00 0.00 0.00 64 1010.9
20260505174411 66 156 5.2 17.4 0.00 0.00 0.00 64 1011.3
20260505173911 65 203 5.2 17.4 0.00 0.00 0.00 64 1011.2
20260505173410 66 206 6.1 15.6 0.00 0.00 0.00 63 1011.5
20260505172910 66 155 4.3 12.2 0.00 0.00 0.00 64 1011.5
20260505172411 66 174 6.1 12.2 0.00 0.00 0.00 63 1011.6
20260505171411 66 157 4.3 11.3 0.00 0.00 0.00 64 1011.6
20260505170910 66 177 6.1 11.3 0.00 0.00 0.00 65 1011.6
20260505165910 65 176 4.3 12.2 0.00 0.00 0.00 66 1011.7
20260505165411 64 178 6.1 12.2 0.00 0.00 0.00 67 1011.8
20260505164911 64 163 6.1 12.2 0.00 0.00 0.00 66 1011.8
20260505164410 64 201 6.1 13.9 0.00 0.00 0.00 66 1012.0
20260505163910 64 171 2.6 13.9 0.00 0.00 0.00 67 1012.0
20260505163411 64 167 3.5 10.4 0.00 0.00 0.00 67 1012.1
20260505161411 64 191 2.6 11.3 0.00 0.00 0.00 69 1012.4
20260505160910 64 122 5.2 11.3 0.00 0.00 0.00 69 1012.6
20260505160411 64 192 5.2 11.3 0.00 0.00 0.00 71 1012.6
20260505152911 59 183 6.1 13.9 0.00 0.00 0.00 79 1013.2
20260505152411 58 104 4.3 13.9 0.00 0.00 0.00 80 1013.4
20260505151911 57 135 3.5 8.7 0.00 0.00 0.00 83 1013.5
20260505151411 56 206 3.5 7.8 0.00 0.00 0.00 83 1013.5
20260505150910 56 232 1.7 7.0 0.00 0.00 0.00 83 1013.6
20260505150410 56 152 1.7 7.0 0.00 0.00 0.00 83 1013.7
20260505140411 55 117 4.3 11.3 0.00 0.00 0.00 86 1013.1